When you browse on this site, cookies collect data to enhance your experience and personalize the content and advertising you see.
Visit our Privacy Policy to learn more. By continuing to use the site, you agree to this use of cookies and data.
  • In Romania
  • List of Countries
  • For 7 days
  • Water Temperature
  • Satellite Maps
  • Weather Map
  • Weather Widgets
  • user-avatar
    Login

    Hourly Weather Zarytovo

    Today, 23 July, Tuesday

    Time Temperature Precipitation Wind Pressure Humidity
    00:00 +17°C° 0 mm 2 mps 743 mmHg 84%
    01:00 +17°C° 0 mm 2 mps 742 mmHg 85%
    02:00 +16°C° 0 mm 2 mps 742 mmHg 86%
    03:00 +16°C° 0 mm 2 mps 742 mmHg 90%
    04:00 +17°C° 0.2 mm 2 mps 742 mmHg 91%
    05:00 +17°C° 0.2 mm 2 mps 742 mmHg 92%
    06:00 +17°C° 0.2 mm 2 mps 741 mmHg 93%
    07:00 +17°C° 0.8 mm 2 mps 741 mmHg 93%
    08:00 +17°C° 0.8 mm 3 mps 741 mmHg 94%
    09:00 +17°C° 0.8 mm 3 mps 741 mmHg 94%
    10:00 +18°C° 0.6 mm 4 mps 741 mmHg 93%
    11:00 +17°C° 0.6 mm 5 mps 741 mmHg 93%
    12:00 +17°C° 0.6 mm 6 mps 741 mmHg 92%
    13:00 +19°C° 1.2 mm 6 mps 741 mmHg 90%
    14:00 +20°C° 1.2 mm 6 mps 740 mmHg 89%
    15:00 +21°C° 1.2 mm 6 mps 740 mmHg 87%
    16:00 +21°C° 1 mm 5 mps 740 mmHg 87%
    17:00 +21°C° 1 mm 4 mps 740 mmHg 86%
    18:00 +21°C° 1 mm 4 mps 740 mmHg 86%
    19:00 +20°C° 0.4 mm 3 mps 740 mmHg 88%
    20:00 +19°C° 0.4 mm 3 mps 740 mmHg 91%
    21:00 +18°C° 0.4 mm 3 mps 740 mmHg 94%
    22:00 +17°C° 0 mm 2 mps 740 mmHg 94%
    23:00 +17°C° 0 mm 2 mps 740 mmHg 94%

    Tomorrow, 24 July, Wednesday

    Time Temperature Precipitation Wind Pressure Humidity
    00:00 +16°C° 0 mm 2 mps 740 mmHg 95%
    01:00 +16°C° 0 mm 2 mps 740 mmHg 95%
    02:00 +16°C° 0 mm 2 mps 740 mmHg 95%
    03:00 +15°C° 0 mm 1 mps 740 mmHg 95%
    04:00 +16°C° 0 mm 1 mps 740 mmHg 94%
    05:00 +16°C° 0 mm 1 mps 740 mmHg 94%
    06:00 +16°C° 0 mm 1 mps 740 mmHg 94%
    07:00 +19°C° 0 mm 1 mps 740 mmHg 90%
    08:00 +20°C° 0 mm 1 mps 740 mmHg 87%
    09:00 +20°C° 0 mm 2 mps 740 mmHg 83%
    10:00 +20°C° 0.9 mm 2 mps 740 mmHg 81%
    11:00 +21°C° 0.9 mm 2 mps 741 mmHg 78%
    12:00 +23°C° 0.9 mm 2 mps 741 mmHg 75%
    13:00 +21°C° 0.4 mm 3 mps 741 mmHg 79%
    14:00 +20°C° 0.4 mm 3 mps 741 mmHg 84%
    15:00 +19°C° 0.4 mm 4 mps 740 mmHg 88%
    16:00 +19°C° 0 mm 3 mps 740 mmHg 87%
    17:00 +19°C° 0 mm 3 mps 741 mmHg 85%
    18:00 +20°C° 0 mm 2 mps 741 mmHg 84%
    19:00 +19°C° 0.2 mm 2 mps 741 mmHg 88%
    20:00 +18°C° 0.2 mm 2 mps 740 mmHg 91%
    21:00 +17°C° 0.2 mm 2 mps 740 mmHg 95%
    22:00 +16°C° 0 mm 2 mps 741 mmHg 95%
    23:00 +16°C° 0 mm 1 mps 741 mmHg 95%

    Day after tomorrow, 25 July, Thursday

    Time Temperature Precipitation Wind Pressure Humidity
    00:00 +16°C° 0 mm 1 mps 741 mmHg 95%
    01:00 +15°C° 0 mm 1 mps 741 mmHg 95%
    02:00 +15°C° 0 mm 1 mps 741 mmHg 94%
    03:00 +15°C° 0 mm 1 mps 741 mmHg 93%
    04:00 +15°C° 0 mm 1 mps 741 mmHg 93%
    05:00 +16°C° 0 mm 1 mps 741 mmHg 92%
    06:00 +16°C° 0 mm 1 mps 741 mmHg 92%
    07:00 +18°C° 0 mm 1 mps 741 mmHg 89%
    08:00 +19°C° 0 mm 1 mps 741 mmHg 87%
    09:00 +19°C° 0 mm 1 mps 742 mmHg 84%
    10:00 +20°C° 0.1 mm 1 mps 742 mmHg 82%
    11:00 +20°C° 0.1 mm 2 mps 742 mmHg 80%
    12:00 +21°C° 0.1 mm 3 mps 742 mmHg 77%
    13:00 +21°C° 0.9 mm 3 mps 742 mmHg 80%
    14:00 +21°C° 0.9 mm 4 mps 742 mmHg 82%
    15:00 +21°C° 0.9 mm 5 mps 742 mmHg 85%
    16:00 +21°C° 0.9 mm 5 mps 742 mmHg 86%
    17:00 +20°C° 0.9 mm 5 mps 742 mmHg 87%
    18:00 +20°C° 0.9 mm 4 mps 742 mmHg 89%
    19:00 +19°C° 0 mm 4 mps 742 mmHg 90%
    20:00 +18°C° 0 mm 4 mps 742 mmHg 92%
    21:00 +17°C° 0 mm 4 mps 742 mmHg 94%
    22:00 +17°C° 0 mm 3 mps 742 mmHg 95%
    23:00 +16°C° 0 mm 3 mps 743 mmHg 96%

    26 July, Friday

    Time Temperature Precipitation Wind Pressure Humidity
    00:00 +16°C° 0 mm 3 mps 743 mmHg 97%
    01:00 +16°C° 0.4 mm 3 mps 743 mmHg 97%
    02:00 +17°C° 0.4 mm 3 mps 743 mmHg 97%
    03:00 +17°C° 0.4 mm 3 mps 743 mmHg 97%
    04:00 +17°C° 0.2 mm 3 mps 743 mmHg 97%
    05:00 +17°C° 0.2 mm 3 mps 743 mmHg 97%
    06:00 +17°C° 0.2 mm 3 mps 743 mmHg 97%
    07:00 +18°C° 0 mm 3 mps 743 mmHg 95%
    08:00 +19°C° 0 mm 4 mps 743 mmHg 92%
    09:00 +20°C° 0 mm 5 mps 743 mmHg 89%
    10:00 +22°C° 0.1 mm 5 mps 743 mmHg 84%
    11:00 +23°C° 0.1 mm 5 mps 743 mmHg 78%
    12:00 +24°C° 0.1 mm 6 mps 743 mmHg 73%
    13:00 +24°C° 0.4 mm 6 mps 742 mmHg 74%
    14:00 +24°C° 0.4 mm 6 mps 742 mmHg 75%
    15:00 +24°C° 0.4 mm 6 mps 742 mmHg 76%
    16:00 +24°C° 0.7 mm 6 mps 742 mmHg 79%
    17:00 +23°C° 0.7 mm 5 mps 742 mmHg 81%
    18:00 +22°C° 0.7 mm 4 mps 742 mmHg 84%
    19:00 +21°C° 0.6 mm 4 mps 742 mmHg 86%
    20:00 +20°C° 0.6 mm 4 mps 742 mmHg 88%
    21:00 +19°C° 0.6 mm 3 mps 742 mmHg 90%
    22:00 +19°C° 0 mm 3 mps 742 mmHg 91%
    23:00 +18°C° 0 mm 3 mps 742 mmHg 93%

    27 July, Saturday

    Time Temperature Precipitation Wind Pressure Humidity
    00:00 +18°C° 0 mm 3 mps 741 mmHg 94%
    01:00 +17°C° 0 mm 3 mps 741 mmHg 95%
    02:00 +17°C° 0 mm 3 mps 741 mmHg 96%
    03:00 +17°C° 0 mm 3 mps 741 mmHg 96%
    04:00 +17°C° 0 mm 3 mps 741 mmHg 96%
    05:00 +17°C° 0 mm 4 mps 741 mmHg 95%
    06:00 +18°C° 0 mm 4 mps 741 mmHg 95%
    07:00 +19°C° 0 mm 4 mps 741 mmHg 91%
    08:00 +20°C° 0 mm 5 mps 741 mmHg 88%
    09:00 +21°C° 0 mm 5 mps 741 mmHg 85%
    10:00 +22°C° 0.1 mm 5 mps 741 mmHg 80%
    11:00 +23°C° 0.1 mm 5 mps 740 mmHg 75%
    12:00 +26°C° 0.1 mm 5 mps 740 mmHg 70%
    13:00 +26°C° 0.2 mm 5 mps 740 mmHg 68%
    14:00 +26°C° 0.2 mm 4 mps 740 mmHg 66%
    15:00 +27°C° 0.2 mm 4 mps 739 mmHg 64%
    16:00 +26°C° 0.2 mm 4 mps 739 mmHg 68%
    17:00 +26°C° 0.2 mm 4 mps 739 mmHg 72%
    18:00 +25°C° 0.2 mm 3 mps 739 mmHg 75%
    19:00 +24°C° 0.1 mm 3 mps 739 mmHg 80%
    20:00 +21°C° 0.1 mm 3 mps 739 mmHg 84%
    21:00 +19°C° 0.1 mm 2 mps 739 mmHg 88%
    22:00 +19°C° 0 mm 2 mps 738 mmHg 90%
    23:00 +18°C° 0 mm 2 mps 738 mmHg 91%

    28 July, Sunday

    Time Temperature Precipitation Wind Pressure Humidity
    00:00 +18°C° 0 mm 2 mps 738 mmHg 92%
    01:00 +18°C° 0 mm 2 mps 737 mmHg 93%
    02:00 +17°C° 0 mm 3 mps 737 mmHg 93%
    03:00 +17°C° 0 mm 3 mps 737 mmHg 93%
    04:00 +17°C° 0 mm 4 mps 737 mmHg 94%
    05:00 +17°C° 0 mm 4 mps 736 mmHg 95%
    06:00 +16°C° 0 mm 5 mps 736 mmHg 95%
    07:00 +16°C° 0.1 mm 6 mps 737 mmHg 92%
    08:00 +16°C° 0.1 mm 7 mps 737 mmHg 90%
    09:00 +15°C° 0.1 mm 7 mps 737 mmHg 87%
    10:00 +16°C° 0 mm 7 mps 737 mmHg 81%
    11:00 +16°C° 0 mm 7 mps 738 mmHg 75%
    12:00 +16°C° 0 mm 7 mps 738 mmHg 69%
    13:00 +16°C° 0 mm 7 mps 738 mmHg 68%
    14:00 +15°C° 0 mm 7 mps 738 mmHg 67%
    15:00 +15°C° 0 mm 8 mps 738 mmHg 66%
    16:00 +14°C° 0 mm 7 mps 738 mmHg 67%
    17:00 +12°C° 0 mm 7 mps 739 mmHg 67%
    18:00 +11°C° 0 mm 7 mps 739 mmHg 68%
    19:00 +10°C° 0 mm 6 mps 739 mmHg 70%
    20:00 +9°C° 0 mm 5 mps 739 mmHg 71%
    21:00 +8°C° 0 mm 4 mps 739 mmHg 72%
    22:00 +10°C° 0 mm 4 mps 739 mmHg 71%
    23:00 +10°C° 0 mm 4 mps 739 mmHg 69%
    Show more